STARLINK-31411

operational
NORAD ID: 59182 Int'l Des: 2024-045 Owner: SPXS Country: US Constellation: starlink
LEOCIRCULAR

STARLINK-31411について

説明を読み込み中...

リアルタイム位置

3D地球を読み込み中...

次回通過

高度履歴

Altitude vs Time

uPlot chart will show altitude changes over time

軌道要素

1 59182U 24045E 25251.12370433 -.00002713 00000-0 -89179-4 0 9991
2 59182 43.0049 43.2922 0000511 288.1721 71.9075 15.27555777 85244
Epoch: Sep 8, 2025 • Age: 13 hours

現在のステータス

高度 484.4 km
速度 7.63 km/s
衛星直下点 32.88°N, 140.38°W
打ち上げ日 Mar 11, 2024
運用期間 1.4 years
タイプ internet

技術仕様

分類 Payload
質量 730.00 kg
乾燥質量 700.00 kg
総質量 730.00 kg
長さ 0.30 m
直径 4.10 m
スパン 29.00 m
形状 Box + pan
製造者 SPXS
バスタイプ Starlink V2M
フェーズステータス In Orbit
所有者/国 SPXS/US

大規模コンステレーション

Loading constellations...